EW2817 Weather Reports


time (UTC)temp
F
wind
direction
speed
knots
gust
knots
rain 1hr
in
rain 24hr
in
rain mn
in
humidity
%
barometer
mb
20260904232541 85 0 0.0 0.0 0.00 0.00 0.00 74 990.3
20260904231041 86 0 0.0 0.0 0.00 0.00 0.00 72 990.1
20260904225540 86 0 0.0 0.0 0.00 0.00 0.00 75 989.6
20260904224039 87 0 0.0 0.0 0.00 0.00 0.00 75 989.4
20260904222540 88 0 0.0 0.0 0.00 0.00 0.00 74 989.7
20260904221039 88 0 0.0 0.0 0.00 0.00 0.00 75 989.6
20260904215537 88 0 0.0 0.0 0.00 0.00 0.00 74 989.6
20260904214035 89 0 0.0 0.0 0.00 0.00 0.00 72 989.7
20260904212534 89 0 0.0 0.0 0.00 0.00 0.00 71 989.6
20260904211033 90 0 0.0 0.0 0.00 0.00 0.00 70 989.6
20260904205533 90 0 0.0 0.0 0.00 0.00 0.00 68 989.5
20260904204031 92 0 0.0 0.0 0.00 0.00 0.00 63 989.4
20260904203225 94 0 0.0 0.0 0.00 0.00 0.00 57 989.5
20260904201727 96 0 0.0 0.0 0.00 0.00 0.00 53 989.7
20260904200226 97 0 0.0 0.0 0.00 0.00 0.00 60 990.3
20260904194025 97 0 0.0 0.0 0.00 0.00 0.00 57 990.4
20260904192523 98 0 0.0 0.0 0.00 0.00 0.00 54 990.6
20260904191023 97 0 0.0 0.0 0.00 0.00 0.00 55 990.4
20260904190224 99 0 0.0 0.0 0.00 0.00 0.00 52 990.8
20260904184712 100 0 0.0 0.0 0.00 0.00 0.00 53 991.1
20260904182523 99 0 0.0 0.0 0.00 0.00 0.00 51 991.3
20260904181022 100 0 0.0 0.0 0.00 0.00 0.00 52 991.4
20260904180216 100 0 0.0 0.0 0.00 0.00 0.00 55 991.6
20260904174020 99 0 0.0 0.0 0.00 0.00 0.00 53 991.8
20260904172521 99 0 0.0 0.0 0.00 0.00 0.00 54 991.9
20260904171019 99 0 0.0 0.0 0.00 0.00 0.00 56 991.9
20260904165513 99 0 0.0 0.0 0.00 0.00 0.00 58 992.0
20260904164014 98 0 0.0 0.0 0.00 0.00 0.00 56 992.2
20260904162502 98 0 0.0 0.0 0.00 0.00 0.00 62 992.5
20260904161001 96 0 0.0 0.0 0.00 0.00 0.00 62 992.8
20260904160147 94 0 0.0 0.0 0.00 0.00 0.00 64 992.8
20260904153954 94 0 0.0 0.0 0.00 0.00 0.00 68 992.9
20260904152454 92 0 0.0 0.0 0.00 0.00 0.00 67 992.9
20260904150954 92 0 0.0 0.0 0.00 0.00 0.00 70 992.9
20260904145455 90 0 0.0 0.0 0.00 0.00 0.00 72 993.0
20260904143952 89 0 0.0 0.0 0.00 0.00 0.00 75 993.0
20260904143150 87 0 0.0 0.0 0.00 0.00 0.00 78 993.1
20260904140949 86 0 0.0 0.0 0.00 0.00 0.00 80 993.0
20260904135446 84 0 0.0 0.0 0.00 0.00 0.00 85 992.9
20260904134639 82 0 0.0 0.0 0.00 0.00 0.00 87 992.8
20260904133144 80 0 0.0 0.0 0.00 0.00 0.00 89 993.0
20260904130942 79 0 0.0 0.0 0.00 0.00 0.00 91 993.0
20260904125442 78 0 0.0 0.0 0.00 0.00 0.00 92 993.1
20260904124633 77 0 0.0 0.0 0.00 0.00 0.00 92 993.2
20260904122442 77 0 0.0 0.0 0.00 0.00 0.00 93 993.2
20260904120942 76 0 0.0 0.0 0.00 0.00 0.00 93 993.2
20260904115441 76 0 0.0 0.0 0.00 0.00 0.00 93 993.1
20260904114636 76 0 0.0 0.0 0.00 0.00 0.00 93 993.0
20260904112438 76 0 0.0 0.0 0.00 0.00 0.00 92 993.0
20260904110938 76 0 0.0 0.0 0.00 0.00 0.00 92 992.9
20260904105436 76 0 0.0 0.0 0.00 0.00 0.00 91 992.7
20260904103934 76 0 0.0 0.0 0.00 0.00 0.00 91 992.7
20260904102430 77 0 0.0 0.0 0.00 0.00 0.00 91 992.8
20260904100927 77 0 0.0 0.0 0.00 0.00 0.00 90 992.8
20260904095428 77 0 0.0 0.0 0.00 0.00 0.00 90 992.7
20260904094627 77 0 0.0 0.0 0.00 0.00 0.00 89 992.6
20260904092427 78 0 0.0 0.0 0.00 0.00 0.00 89 992.6
20260904090925 78 0 0.0 0.0 0.00 0.00 0.00 89 992.6
20260904090122 78 0 0.0 0.0 0.00 0.00 0.00 88 992.4
20260904083926 78 0 0.0 0.0 0.00 0.00 0.00 88 992.2
20260904082431 78 0 0.0 0.0 0.00 0.00 0.00 88 992.0
20260904080925 78 0 0.0 0.0 0.00 0.00 0.00 88 992.0
20260904075426 78 0 0.0 0.0 0.00 0.00 0.00 88 992.2
20260904073925 78 0 0.0 0.0 0.00 0.00 0.00 88 992.1
20260904072426 79 0 0.0 0.0 0.00 0.00 0.00 87 992.0
20260904070924 79 0 0.0 0.0 0.00 0.00 0.00 87 992.1
20260904070112 79 0 0.0 0.0 0.00 0.00 0.00 86 992.3
20260904063922 80 0 0.0 0.0 0.00 0.00 0.00 86 992.5
20260904062421 80 0 0.0 0.0 0.00 0.00 0.00 85 992.8
20260904060919 80 0 0.0 0.0 0.00 0.00 0.00 85 993.0
20260904055419 81 0 0.0 0.0 0.00 0.00 0.00 85 993.2
20260904053919 81 0 0.0 0.0 0.00 0.00 0.00 84 993.4
20260904052417 81 0 0.0 0.0 0.00 0.00 0.00 84 993.6
20260904050913 81 0 0.0 0.0 0.00 0.00 0.00 83 993.7
20260904045411 82 0 0.0 0.0 0.00 0.00 0.00 83 993.6
20260904043917 82 0 0.0 0.0 0.00 0.00 0.00 83 993.6
20260904042410 82 0 0.0 0.0 0.00 0.00 0.00 82 993.5
20260904040909 83 0 0.0 0.0 0.00 0.00 0.00 81 993.4
20260904040058 83 0 0.0 0.0 0.00 0.00 0.00 81 993.2
20260904034604 84 0 0.0 0.0 0.00 0.00 0.00 80 993.2
20260904032406 84 0 0.0 0.0 0.00 0.00 0.00 80 993.3
20260904031553 84 0 0.0 0.0 0.00 0.00 0.00 79 993.3
20260904025405 84 0 0.0 0.0 0.00 0.00 0.00 79 993.4
20260904023902 85 0 0.0 0.0 0.00 0.00 0.00 79 993.5
20260904022402 85 0 0.0 0.0 0.00 0.00 0.00 79 993.6
20260904020900 85 0 0.0 0.0 0.00 0.00 0.00 78 993.6
20260904020053 86 0 0.0 0.0 0.00 0.00 0.00 77 993.6
20260904013856 86 0 0.0 0.0 0.00 0.00 0.00 77 993.4
20260904012354 86 0 0.0 0.0 0.00 0.00 0.00 78 993.3
20260904010859 86 0 0.0 0.0 0.00 0.00 0.00 77 993.0
20260904005354 86 0 0.0 0.0 0.00 0.00 0.00 76 992.7
20260904003848 87 0 0.0 0.0 0.00 0.00 0.00 75 992.4
20260904002348 88 0 0.0 0.0 0.00 0.00 0.00 73 992.2
20260904000907 89 0 0.0 0.0 0.00 0.00 0.00 73 991.9
20260904000040 89 0 0.0 0.0 0.00 0.00 0.00 73 991.7
20260903233846 90 0 0.0 0.0 0.00 0.00 0.00 72 991.6